| time (UTC) | temp C | wind direction | speed KPH | gust KPH | rain 1hr cm | rain 24hr cm | rain mn cm | humidity % | barometer mb |
| 20260507023110 | 15 | 65 | 1.6 | 6.4 | 0.00 | 0.00 | 0.00 | 65 | 1014.6 |
| 20260507021519 | 15 | 89 | 1.6 | 11.3 | 0.00 | 0.00 | 0.00 | 63 | 1014.3 |
| 20260507020015 | 16 | 96 | 3.2 | 8.0 | 0.00 | 0.00 | 0.00 | 61 | 1014.0 |
| 20260507014513 | 16 | 81 | 1.6 | 4.8 | 0.00 | 0.00 | 0.00 | 58 | 1013.7 |
| 20260507013115 | 17 | 66 | 1.6 | 8.0 | 0.00 | 0.00 | 0.00 | 56 | 1013.5 |
| 20260507011505 | 17 | 56 | 3.2 | 9.7 | 0.00 | 0.00 | 0.00 | 55 | 1013.3 |
| 20260507010023 | 18 | 65 | 1.6 | 9.7 | 0.00 | 0.00 | 0.00 | 54 | 1013.1 |
| 20260507004520 | 18 | 82 | 3.2 | 12.9 | 0.00 | 0.00 | 0.00 | 51 | 1013.0 |
| 20260507003005 | 19 | 67 | 6.4 | 14.5 | 0.00 | 0.00 | 0.00 | 50 | 1012.9 |
| 20260507001505 | 19 | 71 | 6.4 | 16.1 | 0.00 | 0.00 | 0.00 | 50 | 1012.8 |
| 20260507000017 | 20 | 79 | 0.0 | 14.5 | 0.00 | 0.00 | 0.00 | 49 | 1012.8 |
| 20260506234522 | 20 | 15 | 4.8 | 12.9 | 0.00 | 0.00 | 0.00 | 49 | 1012.7 |
| 20260506233105 | 20 | 83 | 1.6 | 14.5 | 0.00 | 0.00 | 0.00 | 49 | 1012.4 |
| 20260506231514 | 20 | 72 | 3.2 | 9.7 | 0.00 | 0.00 | 0.00 | 48 | 1012.3 |
| 20260506230020 | 20 | 50 | 4.8 | 16.1 | 0.00 | 0.00 | 0.00 | 48 | 1012.2 |
| 20260506224509 | 20 | 96 | 6.4 | 14.5 | 0.00 | 0.00 | 0.00 | 49 | 1012.0 |
| 20260506223111 | 20 | 353 | 1.6 | 12.9 | 0.00 | 0.00 | 0.00 | 48 | 1012.1 |
| 20260506221518 | 20 | 69 | 1.6 | 14.5 | 0.00 | 0.00 | 0.00 | 50 | 1012.0 |
| 20260506220031 | 20 | 86 | 6.4 | 17.7 | 0.00 | 0.00 | 0.00 | 49 | 1012.0 |
| 20260506214506 | 20 | 55 | 8.0 | 16.1 | 0.00 | 0.00 | 0.00 | 49 | 1012.1 |
| 20260506213104 | 20 | 79 | 6.4 | 16.1 | 0.00 | 0.00 | 0.00 | 50 | 1012.3 |
| 20260506211511 | 20 | 72 | 1.6 | 14.5 | 0.00 | 0.00 | 0.00 | 49 | 1012.4 |
| 20260506210022 | 20 | 70 | 6.4 | 16.1 | 0.00 | 0.00 | 0.00 | 49 | 1012.5 |
| 20260506204521 | 19 | 61 | 11.3 | 19.3 | 0.00 | 0.00 | 0.00 | 49 | 1012.7 |
| 20260506203102 | 20 | 354 | 6.4 | 12.9 | 0.00 | 0.00 | 0.00 | 50 | 1012.8 |
| 20260506201509 | 19 | 118 | 3.2 | 14.5 | 0.00 | 0.00 | 0.00 | 51 | 1012.8 |
| 20260506200022 | 18 | 72 | 6.4 | 17.7 | 0.00 | 0.00 | 0.00 | 53 | 1013.1 |
| 20260506194519 | 18 | 70 | 4.8 | 22.5 | 0.00 | 0.00 | 0.00 | 55 | 1013.0 |
| 20260506193104 | 18 | 55 | 6.4 | 16.1 | 0.00 | 0.00 | 0.00 | 55 | 1013.0 |
| 20260506191510 | 17 | 356 | 3.2 | 17.7 | 0.00 | 0.00 | 0.00 | 57 | 1013.1 |
| 20260506190026 | 17 | 70 | 4.8 | 12.9 | 0.00 | 0.00 | 0.00 | 57 | 1013.1 |
| 20260506184504 | 16 | 75 | 4.8 | 16.1 | 0.00 | 0.00 | 0.00 | 59 | 1013.3 |
| 20260506183127 | 16 | 96 | 8.0 | 16.1 | 0.00 | 0.00 | 0.00 | 59 | 1013.3 |
| 20260506181523 | 15 | 73 | 3.2 | 16.1 | 0.00 | 0.00 | 0.00 | 61 | 1013.3 |
| 20260506180011 | 15 | 94 | 6.4 | 16.1 | 0.00 | 0.00 | 0.00 | 61 | 1013.4 |
| 20260506174514 | 15 | 135 | 6.4 | 16.1 | 0.00 | 0.00 | 0.00 | 61 | 1013.3 |
| 20260506173140 | 14 | 70 | 6.4 | 19.3 | 0.00 | 0.00 | 0.00 | 62 | 1013.8 |
| 20260506171523 | 14 | 27 | 4.8 | 16.1 | 0.00 | 0.00 | 0.00 | 61 | 1013.8 |
| 20260506170008 | 13 | 60 | 8.0 | 19.3 | 0.00 | 0.00 | 0.00 | 63 | 1014.0 |
| 20260506164514 | 13 | 52 | 6.4 | 16.1 | 0.00 | 0.00 | 0.00 | 63 | 1014.2 |
| 20260506163117 | 13 | 72 | 4.8 | 16.1 | 0.00 | 0.00 | 0.00 | 63 | 1014.3 |
| 20260506161507 | 12 | 40 | 4.8 | 17.7 | 0.00 | 0.00 | 0.00 | 65 | 1014.7 |
| 20260506160014 | 12 | 89 | 6.4 | 22.5 | 0.00 | 0.00 | 0.00 | 64 | 1014.7 |
| 20260506154519 | 12 | 57 | 6.4 | 16.1 | 0.00 | 0.00 | 0.00 | 64 | 1014.9 |
| 20260506153116 | 12 | 92 | 3.2 | 17.7 | 0.00 | 0.00 | 0.00 | 64 | 1014.5 |
| 20260506151507 | 11 | 73 | 8.0 | 17.7 | 0.00 | 0.00 | 0.00 | 64 | 1014.6 |
| 20260506150013 | 11 | 27 | 4.8 | 17.7 | 0.00 | 0.00 | 0.00 | 64 | 1014.6 |
| 20260506144520 | 12 | 102 | 8.0 | 17.7 | 0.00 | 0.00 | 0.00 | 64 | 1014.3 |
| 20260506143005 | 11 | 87 | 4.8 | 19.3 | 0.00 | 0.00 | 0.00 | 65 | 1014.1 |
| 20260506141505 | 11 | 82 | 6.4 | 16.1 | 0.00 | 0.00 | 0.00 | 67 | 1013.6 |
| 20260506140020 | 11 | 6 | 6.4 | 17.7 | 0.00 | 0.00 | 0.00 | 68 | 1013.4 |
| 20260506134517 | 10 | 41 | 4.8 | 17.7 | 0.00 | 0.00 | 0.00 | 69 | 1013.4 |
| 20260506133115 | 10 | 65 | 4.8 | 16.1 | 0.00 | 0.00 | 0.00 | 70 | 1013.1 |
| 20260506131507 | 10 | 68 | 3.2 | 11.3 | 0.00 | 0.00 | 0.00 | 70 | 1012.9 |
| 20260506130018 | 10 | 75 | 4.8 | 11.3 | 0.00 | 0.00 | 0.00 | 70 | 1012.5 |
| 20260506124516 | 10 | 41 | 4.8 | 14.5 | 0.00 | 0.00 | 0.00 | 70 | 1012.1 |
| 20260506123005 | 10 | 46 | 3.2 | 12.9 | 0.00 | 0.00 | 0.00 | 70 | 1012.2 |
| 20260506121507 | 10 | 90 | 3.2 | 14.5 | 0.00 | 0.00 | 0.00 | 69 | 1012.1 |
| 20260506120026 | 10 | 47 | 0.0 | 11.3 | 0.00 | 0.00 | 0.00 | 70 | 1011.9 |
| 20260506114518 | 10 | 81 | 3.2 | 20.9 | 0.00 | 0.00 | 0.00 | 69 | 1011.7 |
| 20260506113008 | 10 | 96 | 3.2 | 12.9 | 0.00 | 0.00 | 0.00 | 69 | 1011.5 |
| 20260506111509 | 10 | 34 | 6.4 | 14.5 | 0.00 | 0.00 | 0.00 | 70 | 1011.3 |
| 20260506110020 | 10 | 304 | 3.2 | 9.7 | 0.00 | 0.00 | 0.00 | 71 | 1011.5 |
| 20260506104518 | 10 | 108 | 3.2 | 19.3 | 0.00 | 0.00 | 0.00 | 73 | 1011.5 |
| 20260506103102 | 10 | 359 | 0.0 | 14.5 | 0.00 | 0.00 | 0.00 | 74 | 1011.4 |
| 20260506101506 | 10 | 25 | 3.2 | 14.5 | 0.00 | 0.00 | 0.00 | 75 | 1011.0 |
| 20260506100016 | 10 | 82 | 1.6 | 16.1 | 0.00 | 0.00 | 0.00 | 77 | 1010.8 |
| 20260506094522 | 10 | 63 | 1.6 | 9.7 | 0.00 | 0.00 | 0.00 | 79 | 1010.7 |
| 20260506093106 | 10 | 122 | 3.2 | 17.7 | 0.00 | 0.00 | 0.00 | 80 | 1010.6 |
| 20260506091517 | 10 | 265 | 0.0 | 11.3 | 0.00 | 0.00 | 0.00 | 80 | 1010.7 |
| 20260506090023 | 10 | 47 | 3.2 | 14.5 | 0.00 | 0.00 | 0.00 | 81 | 1010.8 |
| 20260506084522 | 10 | 56 | 3.2 | 8.0 | 0.00 | 0.00 | 0.00 | 81 | 1010.7 |
| 20260506083107 | 10 | 34 | 0.0 | 8.0 | 0.00 | 0.00 | 0.00 | 81 | 1010.3 |
| 20260506081518 | 10 | 90 | 3.2 | 9.7 | 0.00 | 0.00 | 0.00 | 80 | 1010.0 |
| 20260506073120 | 10 | 15 | 3.2 | 17.7 | 0.00 | 0.00 | 0.00 | 79 | 1009.4 |
| 20260506071519 | 10 | 68 | 4.8 | 16.1 | 0.00 | 0.00 | 0.00 | 78 | 1009.7 |
| 20260506061506 | 10 | 96 | 4.8 | 11.3 | 0.00 | 0.00 | 0.00 | 79 | 1008.9 |
| 20260506044505 | 10 | 65 | 4.8 | 9.7 | 0.00 | 0.00 | 0.00 | 78 | 1008.6 |
| 20260506043113 | 11 | 70 | 3.2 | 9.7 | 0.00 | 0.00 | 0.00 | 77 | 1008.6 |
| 20260506041517 | 11 | 4 | 3.2 | 11.3 | 0.00 | 0.00 | 0.00 | 76 | 1008.5 |
| 20260506040032 | 11 | 100 | 6.4 | 19.3 | 0.00 | 0.00 | 0.00 | 75 | 1008.2 |
| 20260506034518 | 11 | 23 | 3.2 | 17.7 | 0.00 | 0.00 | 0.00 | 75 | 1008.1 |
| 20260506033006 | 11 | 59 | 4.8 | 11.3 | 0.00 | 0.00 | 0.00 | 74 | 1007.9 |
| 20260506031509 | 12 | 71 | 6.4 | 16.1 | 0.00 | 0.00 | 0.00 | 73 | 1008.1 |
| 20260506030015 | 12 | 59 | 4.8 | 19.3 | 0.00 | 0.00 | 0.00 | 74 | 1008.0 |
| 20260506024523 | 12 | 84 | 3.2 | 16.1 | 0.00 | 0.00 | 0.00 | 73 | 1007.6 |